EW9439 Weather Reports


Display with metric or nautical units.
time (UTC)temp
F
wind
direction
speed
MPH
gust
MPH
rain 1hr
in
rain 24hr
in
rain mn
in
humidity
%
barometer
mb
20260905064526 75 313 0.0 0.0 0.00 0.01 0.00 93 1009.5
20260905063034 75 313 0.0 0.0 0.00 0.01 0.00 94 1009.4
20260905061544 75 313 0.0 0.0 0.00 0.01 0.00 93 1009.4
20260905060045 76 313 0.0 0.0 0.00 0.01 0.00 93 1009.7
20260905054612 76 313 0.0 0.0 0.00 0.01 0.00 92 1009.9
20260905053043 76 313 0.0 0.0 0.00 0.01 0.00 92 1010.1
20260905051549 76 313 0.0 0.0 0.00 0.01 0.00 92 1010.2
20260905050051 76 313 0.0 0.0 0.00 0.01 0.00 91 1010.3
20260905044533 76 313 0.0 0.0 0.00 0.01 0.00 91 1010.4
20260905043036 77 313 0.0 0.0 0.00 0.01 0.00 90 1010.3
20260905041539 77 313 0.0 0.0 0.00 0.01 0.00 90 1010.4
20260905040043 77 313 0.0 0.0 0.00 0.01 0.01 89 1010.5
20260905034537 77 313 0.0 0.0 0.00 0.01 0.01 89 1010.5
20260905033041 78 313 0.0 0.0 0.00 0.01 0.01 88 1010.7
20260905031523 78 313 0.0 0.0 0.00 0.01 0.01 88 1010.9
20260905030032 78 313 0.0 0.0 0.00 0.01 0.01 87 1011.0
20260905024527 79 313 0.0 0.0 0.00 0.01 0.01 85 1011.0
20260905023031 79 313 0.0 0.0 0.00 0.01 0.01 85 1011.1
20260905021533 80 313 0.0 0.0 0.00 0.01 0.01 84 1011.1
20260905020040 80 313 0.0 0.0 0.00 0.01 0.01 83 1010.9
20260905014541 80 313 0.0 0.0 0.00 0.01 0.01 82 1010.9
20260905013045 81 313 0.0 0.0 0.00 0.01 0.01 81 1010.8
20260905011544 81 313 0.0 0.0 0.00 0.01 0.01 79 1010.7
20260905010049 82 313 0.0 0.0 0.00 0.01 0.01 78 1010.6
20260905004552 83 313 0.0 0.0 0.00 0.01 0.01 77 1010.5
20260905003055 83 313 0.0 0.0 0.00 0.01 0.01 74 1010.5
20260905001555 84 313 0.0 0.0 0.00 0.01 0.01 74 1010.4
20260905000057 85 313 0.0 0.0 0.00 0.13 0.01 72 1010.2
20260904234504 86 313 0.0 0.0 0.00 0.13 0.01 69 1010.1
20260904233012 87 313 0.0 0.0 0.00 0.13 0.01 67 1010.0
20260904231515 88 313 0.0 0.0 0.00 0.13 0.01 66 1010.0
20260904230018 90 313 0.0 0.0 0.00 0.31 0.01 62 1009.8
20260904224516 91 311 0.0 0.0 0.00 0.31 0.01 59 1009.8
20260904223015 91 311 0.0 0.0 0.00 0.31 0.01 55 1009.8
20260904221518 92 155 0.0 0.0 0.00 0.31 0.01 56 1009.6
20260904220020 92 266 0.0 0.0 0.00 0.31 0.01 55 1009.7
20260904214525 92 223 0.0 0.0 0.00 0.31 0.01 57 1009.8
20260904213028 92 313 0.0 0.0 0.00 0.31 0.01 56 1009.9
20260904211512 92 305 0.0 0.0 0.00 0.31 0.01 57 1009.9
20260904210016 92 193 0.0 0.0 0.00 0.31 0.01 58 1010.0
20260904204516 92 287 0.0 1.0 0.00 0.31 0.01 57 1010.2
20260904203059 92 317 0.0 0.0 0.00 0.31 0.01 57 1010.3
20260904201557 92 340 0.0 0.0 0.00 0.31 0.01 57 1010.4
20260904200114 92 346 0.0 0.0 0.00 0.31 0.01 58 1010.6
20260904194504 92 209 0.0 2.0 0.00 0.31 0.01 57 1010.8
20260904193004 92 234 0.0 0.0 0.00 0.31 0.01 59 1011.2
20260904191503 92 38 0.0 0.0 0.00 0.31 0.01 61 1011.4
20260904190004 92 216 0.0 0.0 0.00 0.31 0.01 59 1011.8
20260904184506 92 355 0.0 0.0 0.00 0.31 0.01 60 1012.0
20260904183008 92 355 0.0 2.0 0.00 0.31 0.01 64 1012.2
20260904181510 91 158 0.0 4.0 0.00 0.31 0.01 64 1012.4
20260904180013 90 324 0.0 0.0 0.00 0.31 0.01 67 1012.6
20260904174515 91 188 0.0 0.0 0.00 0.31 0.01 66 1012.6
20260904173014 90 191 0.0 0.0 0.00 0.31 0.01 66 1012.8
20260904171511 90 155 0.0 0.0 0.00 0.31 0.01 69 1013.0
20260904170012 89 15 0.0 0.0 0.00 0.31 0.01 69 1013.2
20260904164512 89 15 0.0 0.0 0.00 0.31 0.01 72 1013.4
20260904163019 89 5 0.0 0.0 0.00 0.31 0.01 69 1013.5
20260904161519 88 51 0.0 0.0 0.00 0.31 0.01 72 1013.6
20260904160021 86 355 0.0 0.0 0.00 0.31 0.01 75 1013.7
20260904154521 85 360 0.0 0.0 0.00 0.31 0.01 79 1013.8
20260904153021 84 360 0.0 0.0 0.00 0.31 0.01 79 1013.8
20260904151521 83 360 0.0 0.0 0.00 0.31 0.01 81 1013.9
20260904150021 80 360 0.0 0.0 0.00 0.31 0.01 89 1014.0
20260904144521 80 360 0.0 0.0 0.00 0.31 0.01 91 1013.8
20260904143033 79 360 0.0 0.0 0.00 0.31 0.01 91 1013.8
20260904141529 78 360 0.0 0.0 0.00 0.31 0.01 91 1013.7
20260904140029 78 360 0.0 0.0 0.00 0.31 0.01 96 1013.5
20260904134537 77 360 0.0 0.0 0.00 0.31 0.01 98 1013.5
20260904133035 76 360 0.0 0.0 0.00 0.31 0.01 99 1013.5
20260904131533 76 360 0.0 0.0 0.00 0.31 0.01 99 1013.6
20260904130038 75 360 0.0 0.0 0.00 0.31 0.01 99 1013.5
20260904124543 74 360 0.0 0.0 0.01 0.31 0.01 99 1013.5
20260904123031 73 360 0.0 0.0 0.01 0.31 0.01 99 1013.3
20260904121513 72 360 0.0 0.0 0.01 0.31 0.01 99 1013.4
20260904120013 72 360 0.0 0.0 0.01 0.31 0.01 99 1013.2
20260904114515 72 360 0.0 0.0 0.00 0.30 0.00 99 1013.2
20260904113015 72 360 0.0 0.0 0.00 0.30 0.00 99 1013.1
20260904111516 72 360 0.0 0.0 0.00 0.30 0.00 98 1012.9
20260904110019 72 360 0.0 0.0 0.00 0.30 0.00 98 1012.7
20260904104525 72 360 0.0 0.0 0.00 0.30 0.00 98 1012.7
20260904103024 72 360 0.0 0.0 0.00 0.30 0.00 98 1012.8
20260904101528 72 360 0.0 0.0 0.00 0.30 0.00 99 1012.5
20260904100029 72 360 0.0 0.0 0.00 0.30 0.00 98 1012.4
20260904094542 73 360 0.0 0.0 0.00 0.30 0.00 98 1012.4
20260904093034 73 360 0.0 0.0 0.00 0.30 0.00 98 1012.3
20260904091518 73 360 0.0 0.0 0.00 0.30 0.00 98 1012.3
20260904090037 73 360 0.0 0.0 0.00 0.30 0.00 98 1012.2
20260904084521 73 360 0.0 0.0 0.00 0.30 0.00 98 1012.1
20260904083100 73 360 0.0 0.0 0.00 0.30 0.00 98 1012.2
20260904081513 73 360 0.0 0.0 0.00 0.30 0.00 99 1012.2
20260904080014 73 360 0.0 0.0 0.00 0.30 0.00 98 1012.0
20260904074519 73 360 0.0 0.0 0.00 0.30 0.00 98 1012.0
20260904073017 73 360 0.0 0.0 0.00 0.30 0.00 98 1012.0
20260904071518 73 360 0.0 0.0 0.00 0.30 0.00 98 1012.0
20260904070026 74 360 0.0 0.0 0.00 0.30 0.00 98 1012.0